• Processing (Info)

  • MPEC 2014-Q104: 2014 QV362

    The following Minor Planet Electronic Circular may be linked-to from your own Web pages, but must not otherwise be redistributed electronically.

    A form allowing access to any MPEC is at the bottom of this page.


    Read MPEC 2014-Q103 Read MPEC 2014-Q105


    M.P.E.C. 2014-Q104                               Issued 2014 Aug. 31, 00:39 UT
    
         The Minor Planet Electronic Circulars contain information on unusual
             minor planets and routine data on comets.  They are published
       on behalf of Commission 20 of the International Astronomical Union by the
              Minor Planet Center, Smithsonian Astrophysical Observatory,
                              Cambridge, MA 02138, U.S.A.
    
                 Prepared using the Tamkin Foundation Computer Network
    
                                  MPC@CFA.HARVARD.EDU
                URL https://www.minorplanetcenter.net/    ISSN 1523-6714
    
                                      2014 QV362
    
    Observations:
         K14Qa2V* C2014 08 25.45263 23 14 38.474-28 11 35.51         21.9 wLEQ104F51
         K14Qa2V  C2014 08 25.46382 23 14 38.572-28 11 17.54         21.6 wLEQ104F51
         K14Qa2V  C2014 08 25.47505 23 14 38.675-28 10 59.57         21.7 wLEQ104F51
         K14Qa2V =C2014 08 26.40627 23 15 02.23 -27 45 49.4          21.1 RtEQ104568
         K14Qa2V =C2014 08 26.40753 23 15 02.25 -27 45 47.4          21.3 RtEQ104568
         K14Qa2V =C2014 08 26.40878 23 15 02.26 -27 45 45.5          21.4 RtEQ104568
         K14Qa2V 2C2014 08 29.46273123 16 01.393-26 21 27.50         21.7 RtEQ104568
         K14Qa2V 2C2014 08 29.46453723 16 01.394-26 21 24.46         21.7 RtEQ104568
    
    Observer details:
    568 Mauna Kea.  Observers R. J. Wainscoat, L. Wells, D. J. Tholen.  Measurers
        P. Veres, R. J. Wainscoat, D. J. Tholen.  2.24-m University of Hawaii
        reflector, 3.6-m Canada-France-Hawaii Telescope + CCD.
    F51 Pan-STARRS 1, Haleakala.  Observers N. Primak, A. Schultz, T. Goggia,
        M. Willman.  Measurers B. Bolin, K. Chambers, S. Chastel, L. Denneau,
        H. Flewelling, M. Huber, E. Magnier, E. Schunova, R. Wainscoat, C. Waters.
        1.8-m Ritchey-Chretien + CCD.
    
    Orbital elements:
    2014 QV362                                               Earth MOID = 0.2368 AU
    Epoch 2014 Dec. 9.0 TT = JDT 2457000.5                  MPC
    M  38.72956              (2000.0)            P               Q
    n   0.31769244     Peri.  298.88314     +0.75250851     +0.65772814
    a   2.1271500      Node    20.05040     -0.56503756     +0.67094364
    e   0.4222239      Incl.    5.61337     -0.33832454     +0.34238622
    P   3.10           H   23.4           G   0.15           U   6
    Residuals in seconds of arc
    140825 F51  0.1+  0.0     140826 568  0.1-  0.0     140829 568  0.0   0.0
    140825 F51  0.0   0.0     140826 568  0.0   0.0     140829 568  0.0   0.0
    140825 F51  0.0   0.0     140826 568  0.0   0.1-
    
    Ephemeris:
    2014 QV362               a,e,i = 2.13, 0.42, 6                   q = 1.2290
    Date    TT    R. A. (2000) Decl.     Delta      r     Elong.  Phase     V
    2014 08 01    22 47 23.2 -36 40 56   0.2492  1.2317   147.1    26.6    22.0
    ...
    2014 08 16    23 08 24.0 -32 06 26   0.2397  1.2310   153.0    22.0    21.8
    ...
    2014 08 24    23 13 58.3 -28 49 45   0.2426  1.2381   157.0    18.6    21.7
    ...
    2014 08 30    23 16 10.0 -26 05 58   0.2490  1.2468   160.2    16.0    21.7
    2014 08 31    23 16 24.6 -25 37 42   0.2504  1.2486   160.7    15.5    21.7
    2014 09 01    23 16 37.6 -25 09 14   0.2519  1.2504   161.1    15.1    21.7
    ...
    2014 09 07    23 17 29.8 -22 15 38   0.2635  1.2627   163.5    13.1    21.8
    ...
    2014 09 15    23 18 06.1 -18 24 29   0.2855  1.2832   164.5    12.1    21.9
    ...
    2014 09 30    23 20 26.7 -11 45 26   0.3486  1.3324   158.6    15.9    22.6
    
    A. U. Tomatic                (C) Copyright 2014 MPC           M.P.E.C. 2014-Q104
    

    Read MPEC 2014-Q103 Read MPEC 2014-Q105


    MPEC number:

    Enter an MPEC number in one of the following forms:

    • 1997-B01 (the full form)
    • J97B01 (the packed version of the full form)
    • B01 (the abbreviated form)